K0APR Weather Reports


time (UTC)temp
C
wind
direction
speed
KPH
gust
KPH
rain 1hr
cm
rain 24hr
cm
rain mn
cm
humidity
%
barometer
mb
20260906190716 21 122 4.8 9.7 0.30 0.05 0.05 88 1017.5
20260906190211 20 117 6.4 8.0 0.00 0.00 0.00 87 1017.5
20260906185710 21 296 3.2 3.2 0.00 0.00 0.00 87 1016.8
20260906185209 21 276 3.2 3.2 0.00 0.00 0.00 86 1016.8
20260906184703 21 312 3.2 4.8 0.00 0.00 0.00 86 1016.8
20260906184159 21 346 0.0 1.6 0.00 0.00 0.00 86 1017.2
20260906183655 21 0 0.0 0.0 0.00 0.00 0.00 87 1017.2
20260906183151 21 340 0.0 1.6 0.00 0.00 0.00 87 1017.2
20260906182650 21 2 1.6 3.2 0.00 0.00 0.00 88 1017.2
20260906182146 21 153 3.2 3.2 0.00 0.00 0.00 88 1017.2
20260906181642 22 315 0.0 0.0 0.00 0.00 0.00 89 1017.5
20260906181138 21 306 0.0 0.0 0.00 0.00 0.00 90 1017.2
20260906180633 22 21 1.6 1.6 0.00 0.00 0.00 92 1017.5
20260906180133 23 91 1.6 3.2 0.00 0.00 0.00 93 1017.9
20260906175631 23 159 4.8 8.0 0.00 0.00 0.00 93 1017.9
20260906175126 23 191 1.6 1.6 0.00 0.00 0.00 92 1018.3
20260906174624 23 229 0.0 0.0 0.00 0.00 0.00 90 1018.3
20260906174119 23 121 4.8 8.0 0.00 0.00 0.00 89 1017.5
20260906173615 22 154 4.8 4.8 0.00 0.00 0.00 90 1017.2
20260906173110 23 143 6.4 9.7 0.00 0.00 0.00 91 1017.5
20260906172609 23 159 8.0 9.7 0.00 0.00 0.00 91 1017.2
20260906172106 23 136 11.3 14.5 0.00 0.00 0.00 91 1017.2
20260906171605 23 123 9.7 12.9 0.00 0.00 0.00 89 1017.2
20260906171101 23 115 8.0 9.7 0.00 0.00 0.00 87 1017.2
20260906170556 23 107 4.8 4.8 0.00 0.00 0.00 87 1017.5
20260906170055 23 62 1.6 3.2 0.00 0.00 0.00 89 1017.5
20260906165553 24 180 3.2 3.2 0.00 0.00 0.00 91 1017.5
20260906165053 24 229 8.0 12.9 0.00 0.00 0.00 91 1017.5
20260906164552 25 138 14.5 17.7 0.00 0.00 0.00 90 1017.2
20260906164048 25 134 11.3 16.1 0.00 0.00 0.00 89 1017.5
20260906163543 25 148 3.2 3.2 0.00 0.00 0.00 90 1017.5
20260906163039 25 142 16.1 20.9 0.00 0.00 0.00 90 1017.5
20260906162536 25 124 6.4 8.0 0.00 0.00 0.00 90 1017.2
20260906162031 25 136 9.7 11.3 0.00 0.00 0.00 90 1017.2
20260906161526 25 165 6.4 9.7 0.00 0.00 0.00 89 1017.2
20260906161025 25 136 6.4 11.3 0.00 0.00 0.00 89 1017.2
20260906160524 25 160 4.8 8.0 0.00 0.00 0.00 89 1017.2
20260906160023 25 115 3.2 4.8 0.00 0.00 0.00 89 1016.8
20260906155520 25 137 3.2 3.2 0.00 0.00 0.00 89 1016.5
20260906155017 25 146 9.7 14.5 0.00 0.00 0.00 89 1016.5
20260906154512 25 161 6.4 8.0 0.00 0.00 0.00 90 1016.8
20260906154010 25 114 1.6 1.6 0.00 0.00 0.00 90 1016.8
20260906153509 25 150 9.7 12.9 0.00 0.00 0.00 90 1016.8
20260906153005 25 154 9.7 11.3 0.00 0.00 0.00 91 1016.8
20260906152505 24 167 4.8 4.8 0.00 0.00 0.00 91 1016.8
20260906152004 24 158 4.8 4.8 0.00 0.00 0.00 91 1017.2
20260906151500 24 188 8.0 9.7 0.00 0.00 0.00 92 1017.2
20260906150955 24 122 6.4 9.7 0.00 0.00 0.00 92 1017.2
20260906150450 24 178 8.0 9.7 0.00 0.00 0.00 92 1017.2
20260906145949 24 164 8.0 9.7 0.00 0.00 0.00 92 1017.2
20260906145444 24 178 11.3 12.9 0.00 0.00 0.00 93 1016.8
20260906144944 23 107 3.2 8.0 0.00 0.00 0.00 93 1016.8
20260906144438 23 115 9.7 12.9 0.00 0.00 0.00 93 1016.8
20260906143934 23 156 8.0 11.3 0.00 0.00 0.00 94 1016.5
20260906143430 23 132 6.4 9.7 0.00 0.00 0.00 94 1016.8
20260906142926 23 133 9.7 11.3 0.00 0.00 0.00 94 1016.8
20260906142425 23 128 4.8 8.0 0.00 0.00 0.00 94 1016.8
20260906141920 23 156 4.8 4.8 0.00 0.00 0.00 94 1016.8
20260906141420 23 144 9.7 12.9 0.00 0.00 0.00 94 1016.5
20260906140914 23 171 8.0 9.7 0.00 0.00 0.00 94 1016.5
20260906140409 23 142 8.0 11.3 0.00 0.00 0.00 94 1016.8
20260906135907 23 150 8.0 11.3 0.00 0.00 0.00 94 1016.5
20260906135406 23 148 4.8 4.8 0.00 0.00 0.00 95 1017.2
20260906134902 23 150 4.8 8.0 0.00 0.00 0.00 95 1016.8
20260906134357 23 139 9.7 11.3 0.00 0.00 0.00 95 1017.2
20260906133852 23 152 11.3 12.9 0.00 0.00 0.00 95 1017.2
20260906133348 23 150 3.2 3.2 0.00 0.00 0.00 95 1017.2
20260906132844 23 147 4.8 4.8 0.00 0.00 0.00 95 1016.8
20260906132344 23 169 8.0 11.3 0.00 0.00 0.00 95 1017.2
20260906131840 23 114 4.8 9.7 0.00 0.00 0.00 95 1016.8
20260906131335 22 155 11.3 12.9 0.00 0.00 0.00 95 1016.8
20260906130831 22 147 9.7 14.5 0.00 0.00 0.00 96 1016.8
20260906130330 22 133 4.8 8.0 0.00 0.00 0.00 96 1016.5
20260906125829 22 101 4.8 8.0 0.00 0.00 0.00 96 1016.5
20260906125326 22 134 4.8 8.0 0.00 0.00 0.00 96 1016.8
20260906124821 22 143 6.4 8.0 0.00 0.00 0.00 96 1016.5
20260906124318 22 120 8.0 9.7 0.00 0.00 0.00 96 1016.8
20260906123816 22 164 8.0 9.7 0.00 0.00 0.00 96 1016.8
20260906123311 22 173 4.8 4.8 0.00 0.00 0.00 96 1016.8
20260906122811 22 172 6.4 8.0 0.00 0.00 0.00 96 1016.8
20260906122306 22 158 8.0 9.7 0.00 0.00 0.00 96 1016.5
20260906121803 22 141 4.8 4.8 0.00 0.00 0.00 96 1016.5
20260906121259 22 152 6.4 8.0 0.00 0.00 0.00 96 1016.5
20260906120755 22 120 9.7 11.3 0.00 0.00 0.00 96 1016.1
20260906120251 22 108 11.3 12.9 0.00 0.00 0.00 96 1016.5
20260906115747 22 144 8.0 11.3 0.00 0.00 0.00 96 1016.5
20260906115241 22 126 9.7 11.3 0.00 0.00 0.00 96 1016.1
20260906114740 22 103 9.7 12.9 0.00 0.00 0.00 96 1016.1
20260906114236 22 113 4.8 8.0 0.00 0.00 0.00 97 1016.1
20260906113731 22 117 6.4 8.0 0.00 0.00 0.00 97 1016.1
20260906113231 22 134 6.4 8.0 0.00 0.00 0.00 97 1016.5
20260906112730 22 100 6.4 9.7 0.00 0.00 0.00 97 1016.5
20260906112227 22 155 8.0 9.7 0.00 0.00 0.00 97 1016.1
20260906111726 22 100 8.0 9.7 0.00 0.00 0.00 97 1015.8
20260906111221 22 110 8.0 11.3 0.00 0.00 0.00 97 1016.5
20260906110716 22 155 4.8 4.8 0.00 0.00 0.00 97 1016.5
20260906110212 22 115 6.4 8.0 0.00 0.00 0.00 97 1016.1
20260906105711 22 153 4.8 8.0 0.00 0.00 0.00 97 1016.1
20260906105208 22 136 6.4 9.7 0.00 0.00 0.00 97 1016.5
20260906104707 22 162 6.4 9.7 0.00 0.00 0.00 97 1016.5
20260906104207 22 93 4.8 4.8 0.00 0.00 0.00 97 1016.1
20260906103704 22 136 6.4 8.0 0.00 0.00 0.00 97 1016.1
20260906103159 22 134 6.4 8.0 0.00 0.00 0.00 97 1016.1
20260906102655 22 148 6.4 8.0 0.00 0.00 0.00 97 1016.1
20260906102154 22 141 8.0 9.7 0.00 0.00 0.00 97 1016.5
20260906101653 22 121 9.7 12.9 0.00 0.00 0.00 97 1016.1
20260906101148 22 117 4.8 4.8 0.00 0.00 0.00 97 1016.5
20260906100645 22 132 8.0 9.7 0.00 0.00 0.00 97 1016.5
20260906100145 22 166 8.0 9.7 0.00 0.00 0.00 97 1016.5
20260906095640 22 126 8.0 9.7 0.00 0.00 0.00 97 1016.1
20260906095135 22 149 9.7 11.3 0.00 0.00 0.00 97 1016.5
20260906094634 22 137 6.4 8.0 0.00 0.00 0.00 97 1016.5
20260906094130 22 143 4.8 4.8 0.00 0.00 0.00 97 1016.8
20260906093626 22 153 4.8 9.7 0.00 0.00 0.00 97 1016.8
20260906093125 22 136 4.8 8.0 0.00 0.00 0.00 97 1016.8
20260906092620 22 139 9.7 12.9 0.00 0.00 0.00 97 1016.5
20260906092116 22 140 11.3 12.9 0.00 0.00 0.00 97 1016.5
20260906091612 22 126 8.0 9.7 0.00 0.00 0.00 97 1016.1
20260906091108 22 172 9.7 11.3 0.00 0.00 0.00 97 1016.1
20260906090609 22 143 12.9 16.1 0.00 0.00 0.00 97 1016.1
20260906090108 22 146 8.0 11.3 0.00 0.00 0.00 97 1016.1
20260906085608 22 129 11.3 12.9 0.00 0.00 0.00 97 1015.8
20260906085102 22 121 8.0 9.7 0.00 0.00 0.00 97 1016.1
20260906084557 22 115 9.7 11.3 0.00 0.00 0.00 97 1016.1
20260906084055 22 162 8.0 9.7 0.00 0.00 0.00 98 1015.8
20260906083551 22 172 6.4 8.0 0.00 0.00 0.00 98 1015.8
20260906083051 22 164 9.7 11.3 0.00 0.00 0.00 98 1015.8
20260906082546 22 109 8.0 9.7 0.00 0.00 0.00 98 1015.8
20260906082042 22 174 8.0 9.7 0.00 0.00 0.00 98 1015.8
20260906081538 22 161 6.4 8.0 0.00 0.00 0.00 98 1016.1
20260906081033 22 121 4.8 4.8 0.00 0.00 0.00 98 1015.8
20260906080530 22 173 11.3 14.5 0.00 0.00 0.00 98 1015.8
20260906080026 22 104 9.7 11.3 0.00 0.00 0.00 98 1016.1
20260906075525 22 120 9.7 11.3 0.00 0.00 0.00 98 1015.8
20260906075020 22 106 11.3 12.9 0.00 0.00 0.00 98 1015.5
20260906074515 22 158 9.7 12.9 0.00 0.00 0.00 98 1015.8
20260906074013 22 130 11.3 12.9 0.00 0.00 0.00 98 1015.5
20260906073508 23 125 9.7 11.3 0.00 0.00 0.00 98 1015.8
20260906073004 23 126 9.7 11.3 0.00 0.00 0.00 98 1015.8
20260906072459 23 161 8.0 11.3 0.00 0.00 0.00 98 1015.8
20260906071955 23 122 6.4 8.0 0.00 0.00 0.00 98 1015.8
20260906071451 23 132 9.7 11.3 0.00 0.00 0.00 98 1016.1
20260906070946 23 135 8.0 11.3 0.00 0.00 0.00 98 1015.8
20260906070443 23 111 8.0 9.7 0.00 0.00 0.00 98 1016.1
20260906065938 23 113 9.7 11.3 0.00 0.00 0.00 98 1015.5
20260906065437 23 125 8.0 9.7 0.00 0.00 0.00 98 1015.8
20260906064933 23 97 8.0 9.7 0.00 0.00 0.00 98 1016.1
20260906064430 23 166 11.3 14.5 0.00 0.00 0.00 98 1015.8
20260906063930 23 144 11.3 12.9 0.00 0.00 0.00 98 1016.1
20260906063425 23 116 8.0 11.3 0.00 0.00 0.00 98 1016.1
20260906062920 23 113 8.0 11.3 0.00 0.00 0.00 98 1016.1
20260906062421 23 144 6.4 9.7 0.00 0.00 0.00 97 1016.1
20260906061916 23 111 6.4 8.0 0.00 0.00 0.00 97 1016.5
20260906061412 23 96 6.4 8.0 0.00 0.00 0.00 97 1016.5
20260906060906 23 133 4.8 4.8 0.00 0.00 0.00 97 1016.5
20260906060403 23 137 6.4 9.7 0.00 0.00 0.00 97 1016.1
20260906055859 23 121 8.0 9.7 0.00 0.00 0.00 97 1016.1
20260906055355 23 134 8.0 9.7 0.00 0.00 0.00 97 1016.1
20260906054850 23 122 6.4 8.0 0.00 0.00 0.00 97 1016.1
20260906054344 23 143 1.6 3.2 0.00 0.00 0.00 96 1016.5
20260906053841 23 115 4.8 8.0 0.00 0.00 0.00 96 1016.5
20260906053336 22 121 4.8 4.8 0.00 0.00 0.00 96 1016.1
20260906052832 22 118 4.8 4.8 0.00 0.00 0.00 96 1016.5
20260906052328 22 133 6.4 8.0 0.00 0.00 0.00 96 1016.5
20260906051825 22 126 6.4 9.7 0.00 0.00 0.00 96 1016.5
20260906051324 22 121 4.8 4.8 0.00 0.00 0.00 95 1016.5
20260906050820 22 109 0.0 0.0 0.00 0.00 0.00 95 1016.5
20260906050315 22 105 0.0 0.0 0.00 0.00 0.00 95 1016.5
20260906045814 22 65 0.0 0.0 0.00 0.08 0.08 94 1016.5
20260906045308 22 84 0.0 0.0 0.00 0.08 0.08 94 1016.5
20260906044805 22 63 0.0 0.0 0.00 0.08 0.08 93 1016.5
20260906044259 22 79 0.0 0.0 0.00 0.08 0.08 93 1016.1
20260906043755 22 83 0.0 0.0 0.00 0.08 0.08 93 1016.1
20260906043251 22 65 0.0 0.0 0.00 0.08 0.08 92 1016.1
20260906042751 23 86 0.0 0.0 0.00 0.08 0.08 92 1016.1
20260906042250 23 58 0.0 0.0 0.00 0.08 0.08 92 1016.5
20260906041745 23 61 0.0 0.0 0.00 0.08 0.08 91 1016.1
20260906041240 23 120 0.0 0.0 0.00 0.08 0.08 91 1016.5
20260906040736 23 65 0.0 0.0 0.00 0.08 0.08 91 1016.1
20260906040231 23 52 0.0 0.0 0.00 0.08 0.08 91 1016.1
20260906035727 23 56 0.0 0.0 0.00 0.08 0.08 91 1015.8
20260906035222 23 106 0.0 0.0 0.00 0.08 0.08 90 1016.1
20260906034722 23 47 0.0 0.0 0.00 0.08 0.08 90 1016.1
20260906034217 23 45 0.0 0.0 0.00 0.08 0.08 90 1015.8
20260906033713 23 63 0.0 0.0 0.00 0.08 0.08 90 1015.8
20260906033212 23 89 1.6 1.6 0.00 0.08 0.08 90 1015.8
20260906032710 23 109 3.2 3.2 0.00 0.08 0.08 89 1015.5
20260906032209 23 125 3.2 3.2 0.00 0.08 0.08 89 1015.8
20260906031704 23 96 0.0 0.0 0.00 0.08 0.08 89 1015.8
20260906031159 23 109 4.8 4.8 0.00 0.08 0.08 88 1015.8
20260906030659 23 105 0.0 0.0 0.00 0.08 0.08 88 1015.8
20260906030154 23 99 4.8 8.0 0.00 0.08 0.08 87 1015.5
20260906025654 23 156 4.8 4.8 0.00 0.08 0.08 87 1015.5
20260906025154 24 134 4.8 8.0 0.00 0.08 0.08 86 1015.5
20260906024648 24 127 4.8 4.8 0.00 0.08 0.08 86 1015.5
20260906024147 24 151 4.8 4.8 0.00 0.08 0.08 85 1015.5
20260906023644 24 151 4.8 8.0 0.00 0.08 0.08 85 1015.5
20260906023143 24 147 4.8 4.8 0.00 0.08 0.08 84 1015.5
20260906022638 25 127 8.0 9.7 0.00 0.08 0.08 84 1015.5
20260906022134 25 134 4.8 4.8 0.00 0.08 0.08 84 1015.5
20260906021630 25 137 3.2 4.8 0.00 0.08 0.08 83 1015.5
20260906021129 25 121 4.8 4.8 0.00 0.08 0.08 83 1015.5
20260906020629 25 138 8.0 11.3 0.00 0.08 0.08 82 1015.5
20260906020124 25 163 4.8 4.8 0.00 0.08 0.08 82 1015.5
20260906015618 25 109 14.5 17.7 0.00 0.08 0.08 81 1015.1
20260906015117 25 135 9.7 12.9 0.00 0.08 0.08 81 1015.5
20260906014611 25 156 11.3 12.9 0.00 0.08 0.08 80 1015.5
20260906014108 25 105 6.4 8.0 0.00 0.08 0.08 80 1015.5
20260906013603 25 148 6.4 9.7 0.00 0.08 0.08 79 1015.5
20260906013058 25 97 6.4 9.7 0.00 0.08 0.08 78 1015.5
20260906012553 26 159 6.4 8.0 0.00 0.08 0.08 78 1015.1
20260906012053 26 146 4.8 4.8 0.00 0.08 0.08 77 1015.1
20260906011549 26 121 8.0 9.7 0.00 0.08 0.08 77 1015.1
20260906011049 26 121 4.8 8.0 0.00 0.08 0.08 76 1015.1
20260906010544 26 143 6.4 8.0 0.00 0.08 0.08 75 1015.1
20260906010041 26 133 6.4 8.0 0.00 0.08 0.08 75 1015.1
20260906005540 26 142 4.8 4.8 0.00 0.08 0.08 74 1015.1
20260906005039 26 159 12.9 14.5 0.00 0.08 0.08 74 1015.1
20260906004538 27 139 6.4 9.7 0.00 0.08 0.08 73 1015.1
20260906004033 27 168 9.7 12.9 0.00 0.08 0.08 72 1015.1
20260906003529 27 142 6.4 8.0 0.00 0.08 0.08 71 1015.1
20260906003025 27 167 11.3 12.9 0.00 0.08 0.08 71 1015.1
20260906002525 27 173 8.0 9.7 0.00 0.08 0.08 70 1015.1
20260906002019 27 146 8.0 9.7 0.00 0.08 0.08 69 1015.1
20260906001516 28 148 8.0 9.7 0.00 0.08 0.08 68 1014.7
20260906001009 28 165 11.3 12.9 0.00 0.08 0.08 67 1015.1
20260906000506 28 146 9.7 11.3 0.00 0.08 0.08 67 1015.1
20260906000000 28 128 11.3 12.9 0.00 0.08 0.08 66 1015.1
20260905235500 28 134 11.3 14.5 0.00 0.08 0.08 65 1014.7
20260905234955 28 152 9.7 11.3 0.00 0.08 0.08 65 1015.1
20260905234451 28 119 8.0 11.3 0.00 0.08 0.08 64 1014.7
20260905233950 28 165 12.9 14.5 0.00 0.08 0.08 64 1015.1
20260905233446 28 140 8.0 9.7 0.00 0.08 0.08 64 1014.7
20260905232944 28 121 14.5 17.7 0.00 0.08 0.08 63 1014.7
20260905232441 28 141 16.1 17.7 0.00 0.08 0.08 64 1014.7
20260905231936 28 138 16.1 20.9 0.00 0.08 0.08 65 1014.7
20260905231432 28 121 19.3 24.1 0.00 0.08 0.08 65 1014.7
20260905230928 28 139 14.5 17.7 0.00 0.08 0.08 66 1014.7
20260905230427 28 144 16.1 22.5 0.00 0.08 0.08 66 1014.7
20260905225925 28 134 16.1 20.9 0.00 0.08 0.08 66 1014.7
20260905225420 28 178 16.1 17.7 0.00 0.08 0.08 65 1014.7
20260905224915 28 133 14.5 22.5 0.00 0.08 0.08 65 1014.7
20260905224411 28 138 9.7 12.9 0.00 0.08 0.08 70 1014.7
20260905223911 28 99 11.3 12.9 0.00 0.08 0.08 70 1014.7
20260905223409 28 166 14.5 16.1 0.00 0.08 0.08 69 1014.7
20260905222909 28 184 17.7 22.5 0.00 0.08 0.08 69 1014.7
20260905222408 28 124 17.7 22.5 0.00 0.08 0.08 68 1014.7
20260905221904 28 126 16.1 22.5 0.00 0.08 0.08 68 1014.7
20260905221401 28 127 14.5 17.7 0.00 0.08 0.08 67 1014.7
20260905220856 28 151 12.9 16.1 0.00 0.08 0.08 66 1014.7
20260905220352 29 118 14.5 16.1 0.00 0.08 0.08 64 1014.7
20260905215851 29 111 17.7 24.1 0.00 0.08 0.08 64 1014.7
20260905215347 30 139 17.7 20.9 0.00 0.08 0.08 65 1014.4
20260905214843 29 116 16.1 17.7 0.00 0.08 0.08 66 1014.4
20260905214339 29 116 11.3 14.5 0.00 0.08 0.08 66 1014.4
20260905213839 29 109 19.3 22.5 0.00 0.08 0.08 66 1014.4
20260905213336 29 117 17.7 22.5 0.00 0.08 0.08 69 1014.4
20260905212836 29 146 11.3 16.1 0.00 0.08 0.08 68 1014.4
20260905212330 29 109 8.0 11.3 0.00 0.08 0.08 67 1014.4
20260905211830 29 147 14.5 16.1 0.00 0.08 0.08 68 1014.4
20260905211326 29 134 14.5 20.9 0.00 0.08 0.08 68 1014.4
20260905210822 29 113 20.9 25.7 0.00 0.08 0.08 67 1014.4
20260905210321 30 127 11.3 12.9 0.00 0.08 0.08 67 1014.4
20260905205820 29 103 8.0 12.9 0.00 0.08 0.08 68 1014.4
20260905205315 30 101 14.5 17.7 0.00 0.08 0.08 67 1014.4
20260905204815 30 123 35.4 40.2 0.00 0.08 0.08 66 1014.4
20260905204311 29 120 9.7 11.3 0.00 0.08 0.08 67 1014.4
20260905203810 30 91 12.9 14.5 0.00 0.08 0.08 66 1014.4
20260905203306 30 117 12.9 14.5 0.00 0.08 0.08 65 1014.4
20260905202801 29 122 8.0 9.7 0.00 0.08 0.08 66 1014.4
20260905202255 29 135 12.9 14.5 0.00 0.08 0.08 66 1014.4
20260905201751 30 128 19.3 20.9 0.00 0.08 0.08 66 1014.4
20260905201246 30 123 8.0 11.3 0.00 0.08 0.08 62 1014.4
20260905200741 30 134 14.5 16.1 0.00 0.08 0.08 64 1014.4
20260905200237 30 113 19.3 25.7 0.00 0.08 0.08 62 1014.4
20260905195735 30 114 17.7 17.7 0.00 0.08 0.08 62 1014.4
20260905195230 30 169 8.0 16.1 0.00 0.08 0.08 64 1014.4
20260905194726 30 136 11.3 14.5 0.00 0.08 0.08 64 1014.4
20260905194226 30 124 17.7 33.8 0.00 0.08 0.08 61 1014.0
20260905193725 30 154 14.5 17.7 0.00 0.08 0.08 64 1014.0
20260905193220 30 175 22.5 32.2 0.00 0.08 0.08 61 1014.0
20260905192716 30 114 12.9 16.1 0.00 0.08 0.08 63 1014.0
20260905192212 30 127 9.7 12.9 0.00 0.08 0.08 62 1014.4
20260905191711 30 115 12.9 14.5 0.00 0.08 0.08 63 1014.4